Terminal Aerodrome Forecast
Issued by NWS Tiyan, Guam

Home | Current Version | Previous Version | Text Only | Print | Product List | Glossary On
Versions: 1 2 3 4 5 6 7 8 9 10 11 12 13 14 15 16 17 18 19 20 21 22 23 24
000
FTPQ31 PGUM 231700
TAFPQ
TAF
PGUM 231720Z 2318/2424 07009KT P6SM VCSH FEW025 SCT050
     FM240000 07011G20KT P6SM FEW025 SCT050
     FM240800 07010KT P6SM VCSH FEW025 SCT050=

USA.gov is the U.S. government's official web portal to all federal, state and local government web resources and services.